ELEKTRON 3 DEB, 831

Orbit data source: Space-Track

ELEKTRON 3 DEB, 831 is space debris in LEO originally from a launch on Fri, 10 Jul 1964 UTC launched from the Tyuratam Missile And Space Complex (TTMTR). Debris objects in space refer to the collection of defunct objects orbiting the Earth. Examples of debris include non-operational satellites, rocket bodies, and fragments generated from explosions, collisions, or faulty payload assembly.

Loading next visibility...
Identifier
831, 1964-038C
Orbit
LEO
Country
Flag of CISCIS
Related business
Manufacturer
OKB-1
Mission
Spacecraft
Bus & Motor
ADAPTER, Unknown motor
Mass
Unknown
Launch date (UTC)
1964-07-10 (62 years ago)
Launch vehicle
Unknown
Launch site
Tyuratam Missile And Space Complex (TTMTR)
Object type
Payload
Rocket body
Debris
Shape & HBR
Unknown shape, 0.3 m
Radar Cross Section
Medium (>0.1 m² and <1 m²)

Expand to show TLE details & history
Last TLE update: 12 hours ago

TLE from 12 hours ago
0 ELEKTRON 3 DEB
1   831U 64038C   26037.61826042  .00015675  00000-0  14927-2 0  9999
2   831  60.6744 166.1251 1258568 318.2204  32.9010 12.76859213349227
Epoch: 2026-02-06T14:50Z
TLE epoch observation values (Epoch: 2026-02-06T14:50:17.700Z)
Latitude
-0.00007°
Longitude
166.79776°
Altitude
581.202 km
Speed
7.94 km/s
True Right ascension
11h 04m 30s
True Declination
0° 00' 00"
Sunlit
Object was in full shadow at epoch
Visualization orbit readout
Latitude
Unknown
Longitude
Unknown
Altitude
Unknown
Speed
Unknown
Apparent Right ascension
Unknown
Apparent Declination
Unknown
Sunlit
N/A
Visualization observer readout
Local Sidereal Time
05:26:11
Azimuth
Unknown
Elevation
Unknown
Doppler factor
Unknown
Orbital elements
Apogee altitude
2,326.366 km
Perigee altitude
380.256 km
Semi-major axis
7,731.448 km
Eccentricity
0.12586
Inclination
60.6744°
RAAN
166.1251°
Arg. of periapsis
318.2204°
True anomaly
41.88118°
Mean anomaly
32.901°
Eccentric anomaly
37.26757°
Mean motion
3.19265 °/min
Orbital period
112.76 mins
BSTAR
0.0014927
Loading maneuver chart data...
Computing Atmospheric mass density...
Loading historical data...
Loading historical data...
Loading historical data...
Loading historical data...
Loading historical data...
Loading historical data...
Loading historical data...

Documentation

Showing up to 5 results
|